FALCON HEAVY R/B, 57480

Orbit data source: Space-Track

FALCON HEAVY R/B, 57480 is space debris in HEO originally from a launch on Sat, 29 Jul 2023 UTC launched from the Air Force Eastern Test Range (AFETR). Debris objects in space refer to the collection of defunct objects orbiting the Earth. Examples of debris include non-operational satellites, rocket bodies, and fragments generated from explosions, collisions, or faulty payload assembly.

Loading next visibility...
Identifier
57480, 2023-108B
Orbit
HEO
Last TLE update
1 day ago
Origin
Manufacturer
SpaceX
Mission
Spacecraft
Bus & Motor
F9ST2, Unknown motor
Mass
~4,000 kg wet, ~4,000 kg dry
Launch date (UTC)
2023-07-29 (2 years ago)
Launch vehicle
Unknown
Launch site
Air Force Eastern Test Range (AFETR)
Object type
Payload
Rocket body
Debris
Shape & HBR
Cyl, Unknown HBR
Radar Cross Section
49.816 m², Large (>1 m²)

Expand to show TLE details & history

TLE from 1 day ago
0 FALCON HEAVY R/B
1 57480U 23108B   25191.36658586 -.00000079  00000-0  00000-0 0  9990
2 57480  10.4428 128.1994 4995631 325.3848  10.4022  1.84353869 13144
Epoch: 2025-07-10T08:47Z
TLE epoch observation values (Epoch: 2025-07-10T08:47:53.018Z)
Latitude
-0.00003°
Longitude
67.56257°
Altitude
8,523.247 km
Speed
6.27 km/s
True Right ascension
08h 32m 16s
True Declination
0° 00' 00"
Sunlit
Object was in daylight at epoch
Visualization orbit readout
Latitude
-10.25253°
Longitude
-34.83562°
Altitude
11,338.625 km
Speed
5.551 km/s
Apparent Right ascension
02h 44m 48s
Apparent Declination
-25° 13' 59"
Sunlit
Object is in daylight
Visualization observer readout
Local Sidereal Time
21:55:21
Azimuth
120.257° SE
Elevation
-3.628°
Doppler factor
1
Orbital elements
Apogee altitude
35,756.002 km
Perigee altitude
7,682.944 km
Semi-major axis
28,097.61 km
Eccentricity
0.49956
Inclination
10.4428°
RAAN
128.1994°
Arg. of periapsis
325.3848°
True anomaly
Unknown
Mean anomaly
10.4022°
Eccentric anomaly
Unknown
Mean motion
0.46083 °/min
Orbital period
781.2 mins
BSTAR
0
Loading maneuver chart data...
Loading SW <> Apogee altitude chart data...
Loading historical data...
Loading historical data...
Loading historical data...
Loading historical data...
Loading historical data...
Loading historical data...
Loading historical data...
Other satellites on launch #108 in the year 2023 (2023-07-29 UTC)

FALCON HEAVY R/B Visibility forecast

Observer location: undefined°, undefined°

Span
Click to sort rows by Start time (UTC) header in descending order
Start Az.
Max El. time (UTC)
Max El. Az.
Max El.
End time (UTC)
End Az.
578 mins2025-07-11 23:59:37.458Z239.506° WSW2025-07-12 02:25:37.458Z165.366° S38.561°2025-07-12 09:37:37.458Z194.484° SSW
|